Regional Weather Roundup
Issued by NWS

Home | Current Version | Previous Version | Graphics & Text | Print | Product List | Glossary Off
Versions: 1 2 3 4 5 6 7 8 9 10 11 12 13 14 15 16 17 18 19 20 21 22 23 24 25 26 27 28 29 30 31 32 33 34 35 36 37 38 39 40 41 42 43 44 45 46 47 48 49 50

000
ASUS43 KOAX 290810
RWRNE

WEATHER ROUNDUP FOR NEBRASKA
NATIONAL WEATHER SERVICE OMAHA NE
300 AM CDT SUN MAY 29 2016

NOTES: SATELLITE DATA IS BEING USED TO AUGMENT CLOUD COVER ABOVE
       12000 FEET.
       "FAIR" INDICATES FEW OR NO CLOUDS BELOW 12,000 FEET WITH NO
       SIGNIFICANT WEATHER AND/OR OBSTRUCTIONS TO VISIBILITY.

  * THESE STATIONS DO NOT REPORT WEATHER SUCH AS RAIN...SNOW OR FOG.

NEZ001>004-019>022-054>056-290900-
NEBRASKA PANHANDLE

CITY           SKY/WX    TMP DP  RH WIND       PRES   REMARKS
SCOTTSBLUFF    MOCLDY    49  44  83 SE8       30.08F
ALLIANCE       CLEAR     42  41  96 CALM      30.08S
CHADRON        PTCLDY    39  38  96 CALM      30.07S FOG
KIMBALL        CLEAR     45  42  92 SW7       30.13S
SIDNEY         CLEAR     44  42  93 S7        30.11S
$$

NEZ057>060-069>072-079>082-290900-
SOUTHWEST NEBRASKA

CITY           SKY/WX    TMP DP  RH WIND       PRES   REMARKS
NORTH PLATTE   CLOUDY    51  49  92 NW3       30.06S
IMPERIAL       CLEAR     54  51  90 CALM      30.07S
LEXINGTON      PTCLDY    55  51  87 S3        30.03F
MCCOOK         CLOUDY    58  51  78 SE9       30.04F
OGALLALA       CLEAR     48  46  93 CALM      30.08R
$$

NEZ005>010-023>029-035>040-094-290900-
NORTH CENTRAL NEBRASKA

CITY           SKY/WX    TMP DP  RH WIND       PRES   REMARKS
VALENTINE      CLEAR     53  49  86 SW8       30.04S
AINSWORTH      CLOUDY    57  55  91 NW6       30.04R
BROKEN BOW     PTCLDY    56  52  86 SW3       30.02R
O`NEILL        MOCLDY    60  57  89 CALM      30.00S
ORD            CLEAR     56  54  93 N5        30.00S
THEDFORD       CLEAR     51  49  95 W3        30.05S
$$

NEZ041-046>049-061>064-073>077-083>087-290900-
SOUTH CENTRAL NEBRASKA

CITY           SKY/WX    TMP DP  RH WIND       PRES   REMARKS
GRAND ISLAND   PTCLDY    60  57  89 CALM      30.02R
AURORA         CLOUDY    59  58  96 CALM      30.02R
HASTINGS       MOCLDY    60  55  83 S3        30.02F
HEBRON         CLEAR     59  56  92 CALM      30.03R
HOLDREGE       CLEAR     57  51  79 S3        30.04F
KEARNEY *      CLOUDY    57  50  77 SW10      30.02S
YORK           CLOUDY    57  57 100 S6        30.01F
$$

NEZ011>018-030>034-042>045-290900-
NORTHEAST NEBRASKA

CITY           SKY/WX    TMP DP  RH WIND       PRES   REMARKS
NORFOLK        CLOUDY    54  52  93 CALM      30.00R
ALBION         CLOUDY    55  52  90 N5        30.01S
BLAIR          CLEAR     58  55  89 CALM      29.99S
FREMONT        CLEAR     56  55  97 CALM      30.00S
TEKAMAH        CLEAR     56  53  90 W7        29.98S
WAYNE          CLEAR     53  52  98 SW6       29.99S
$$

NEZ050>053-065>068-078-088>093-290900-
SOUTHEAST NEBRASKA

CITY           SKY/WX    TMP DP  RH WIND       PRES   REMARKS
LINCOLN        CLEAR     59  56  89 CALM      30.02R
OMAHA EPPLEY   CLEAR     59  54  83 CALM      29.99S
BEATRICE       CLEAR     58  56  92 CALM      30.02R
FALLS CITY     CLEAR     61  58  90 W3        30.01R
NEBRASKA CITY  CLEAR     60  58  92 W3        30.01S
PLATTSMOUTH    CLEAR     60  57  91 W5        30.01R
$$

NEZ044-045-051>053-067-290900-
OMAHA AREA

CITY           SKY/WX    TMP DP  RH WIND       PRES   REMARKS
OMAHA EPPLEY   CLEAR     59  54  83 CALM      29.99S
BLAIR          CLEAR     58  55  89 CALM      29.99S
FREMONT        CLEAR     56  55  97 CALM      30.00S
MILLARD        CLEAR     57  55  95 CALM      30.00S FOG
OFFUTT AFB     CLEAR     56  55  97 SW1       29.99S
PLATTSMOUTH    CLEAR     60  57  91 W5        30.01R
WAHOO          FAIR      58  55  91 CALM      30.00S
$$




USA.gov is the U.S. government's official web portal to all federal, state and local government web resources and services.